SCP
0 0 0 0 0 1 1 1 1 1 0 0 0 0 0 0 0 0 0 0 0 0 0 0 0 0 0 0 0 0 0 0 0 0 0 0 0 0 0 0 0 0 0 0 0 0 0
0 0 0 0 -0 1 1 1 1 1 1 0 0 0 0 0 0 0 0 0 1 0 0 0 0 0 0 0 0 0 0 0 0 0 0 0 0 0 0 0 0 0 0 0 0 0 0
0 0 0 0 -0 0 0 0 1 1 1 0 0 0 0 0 0 0 0 0 0 0 0 0 0 0 0 0 0 0 0 0 0 0 0 0 0 0 0 0 0 0 0 0 0 0 0
0 0 0 0 0 -0 0 0 1 1 1 0 0 0 0 0 0 0 0 0 0 0 0 0 0 0 0 0 0 0 0 0 0 0 0 0 0 0 0 0 0 0 0 0 0 0 0
0 0 0 0 0 0 0 1 1 1 1 0 0 0 0 0 0 0 0 0 0 0 0 0 0 0 0 0 0 0 0 0 0 0 0 0 0 0 0 0 0 0 0 0 0 0 0
0 0 0 0 0 -0 0 0 1 0 0 0 0 0 0 0 0 0 0 0 0 0 0 0 0 0 0 0 0 0 0 0 0 0 0 0 0 0 0 0 0 0 0 0 0 0 0
-0 -0 0 0 0 0 -0 0 0 1 0 0 0 0 0 0 0 0 0 0 0 0 0 0 0 0 0 0 0 0 0 0 0 0 0 0 0 0 0 0 0 0 0 0 0 0 0
0 0 0 0 0 -0 -0 0 0 1 1 0 0 0 0 0 0 0 0 0 0 0 0 0 0 0 0 0 0 0 0 0 0 0 0 0 0 0 0 0 0 0 0 0 0 0 0
0 0 0 0 0 0 -0 -0 0 1 1 0 0 0 0 0 0 0 0 0 0 0 0 0 0 0 0 0 0 0 0 0 0 0 0 0 0 0 0 0 0 0 0 0 0 0 0
0 0 0 0 0 0 -0 -0 0 0 0 0 0 0 0 0 0 0 0 0 0 0 0 0 0 0 0 0 0 0 0 0 0 0 0 0 0 0 0 0 0 0 0 0 0 0 0
0 0 0 0 0 0 -0 -0 0 0 0 0 0 0 0 0 0 0 0 0 0 0 0 0 0 0 0 0 0 0 0 0 0 0 0 0 0 0 0 0 0 0 0 0 0 0 0
0 0 0 0 0 0 -0 0 1 0 0 0 0 0 0 0 0 0 0 0 0 0 0 0 0 0 0 0 0 0 0 0 0 0 0 0 0 0 0 0 0 0 0 0 0 0 0
0 0 0 0 0 0 -0 0 1 0 0 0 0 0 0 0 0 0 0 0 0 0 0 0 0 0 0 0 0 0 0 0 0 0 0 0 0 0 0 0 0 0 0 0 0 0 0
0 0 0 0 0 0 0 0 0 0 0 0 0 0 0 0 0 0 0 0 0 0 0 0 0 0 0 0 0 0 0 0 0 0 0 0 0 0 0 0 0 0 0 0 0 0 0
0 0 0 0 0 -0 0 0 0 0 0 0 0 0 0 0 0 0 0 0 0 0 0 0 0 0 0 0 0 0 0 0 0 0 0 0 0 0 0 0 0 0 0 0 0 0 0
-0 0 0 0 0 0 0 0 0 0 0 0 0 0 0 0 0 0 0 0 0 0 0 0 0 0 0 0 0 0 0 0 0 0 0 0 0 0 0 0 0 0 0 0 0 0 0
0 0 0 0 0 0 0 0 0 0 0 0 0 0 0 0 0 0 0 0 0 0 0 0 0 0 0 0 0 0 0 0 0 0 0 0 0 0 0 0 0 0 0 0 0 0 0
0 0 0 0 0 0 0 0 0 0 0 0 0 0 0 0 0 0 0 0 0 0 0 0 0 0 0 0 0 0 0 0 0 0 0 0 0 0 0 0 0 0 0 0 0 0 0
0 0 0 0 0 0 0 0 0 0 0 0 0 0 0 0 0 0 0 0 0 0 0 0 0 0 0 0 0 0 0 0 0 0 0 0 0 0 0 0 0 0 0 0 0 0 0
0 0 0 0 0 0 0 0 0 0 0 0 0 0 0 0 0 0 0 0 0 0 0 0 0 0 0 0 0 0 0 0 0 0 0 0 0 0 0 0 0 0 0 0 0 0 0
0 0 0 0 0 0 0 0 0 0 0 0 0 0 0 0 0 0 0 0 0 0 0 0 0 0 0 0 0 -0 -0 0 -0 0 0 0 0 0 0 0 0 0 0 0 0 0 0
0 0 0 0 0 0 0 0 0 0 0 0 0 0 0 0 0 0 0 0 0 0 0 0 0 0 0 0 0 -0 -0 0 -0 0 0 0 0 0 0 0 0 0 0 0 0 0 0
0 0 0 0 0 0 0 0 0 0 0 0 0 0 0 0 0 0 0 0 0 0 0 0 0 0 0 0 0 -0 -0 -0 -0 0 0 0 0 0 0 0 0 0 0 0 0 0 0
0 0 0 0 0 0 0 0 0 0 0 0 0 0 0 0 0 0 0 0 0 0 0 0 0 0 0 0 -0 -0 -0 -0 -0 -0 -0 0 0 0 0 0 0 0 0 0 0 0 0
0 0 0 0 0 0 0 0 0 0 0 0 0 0 0 0 0 0 0 0 0 0 0 0 0 0 0 0 -0 -0 -0 -0 -0 -0 0 0 0 0 0 0 0 0 0 0 0 0 0
0 0 0 0 0 -0 0 0 0 0 0 0 0 0 0 0 0 0 0 0 0 0 0 0 0 0 0 0 0 -0 -0 0 0 0 0 0 0 0 0 0 0 0 0 0 0 0 0
0 0 0 0 0 0 0 0 0 0 0 0 0 0 0 0 0 0 0 0 0 0 0 0 0 0 0 -0 -0 -0 -0 -0 0 0 0 0 0 0 0 0 0 0 0 0 0 0 0
0 0 0 0 0 0 0 0 0 0 0 0 0 0 0 0 0 0 0 0 0 0 0 0 0 0 0 0 -0 -0 -0 0 0 0 0 0 0 0 0 0 0 0 0 0 0 0 0
0 -0 0 0 0 0 0 0 0 0 0 0 0 0 0 0 0 0 0 0 0 0 0 0 0 0 0 0 0 -0 -0 0 0 0 0 0 0 0 0 0 0 0 0 0 0 0 0
Wind_Speed_500mb
76 89 91 93 108 122 110 106 100 92 86 85 83 77 68 64 58 56 54 61 66 57 52 49 46 49 46 38 26 10 2 40 41 38 35 34 30 19 10 8 11 6 9 19 37 17 3
81 84 83 91 107 105 112 114 101 97 88 85 83 77 69 65 60 55 49 52 60 61 54 50 51 53 58 36 35 25 4 23 37 43 38 35 25 25 18 15 17 30 22 29 15 21 12
89 88 85 88 85 82 108 119 108 98 88 89 85 78 71 65 61 59 54 49 52 59 55 52 51 57 57 56 13 36 37 6 21 42 43 41 24 24 13 7 25 33 13 19 19 21 9
91 96 89 88 87 104 84 124 115 102 98 90 86 84 74 66 62 61 54 49 49 52 54 52 52 57 27 65 33 36 43 32 18 30 35 33 31 14 9 2 3 10 5 19 19 19 14
91 94 93 88 83 89 111 119 114 105 98 92 87 85 78 68 61 60 55 48 48 49 49 49 52 50 22 45 60 40 36 32 34 33 39 26 28 10 7 6 3 9 9 11 10 37 10
95 102 99 90 84 89 94 81 117 110 101 95 92 83 79 70 62 58 55 47 45 46 48 45 42 22 27 47 67 51 42 33 41 38 31 21 15 7 4 8 22 9 11 13 28 16 17
120 109 102 98 88 76 85 91 119 113 105 97 93 85 80 71 64 61 58 59 46 29 72 36 36 8 39 35 49 66 52 42 47 42 14 20 12 31 30 16 6 5 11 18 8 18 17
113 112 106 96 95 88 83 102 103 115 106 98 95 87 82 71 66 66 66 60 70 22 32 43 11 40 23 39 29 56 63 43 29 25 23 10 28 27 15 15 15 19 11 12 13 4 14
105 134 120 103 98 87 84 75 55 121 106 102 96 89 84 74 67 70 75 70 60 44 13 44 32 38 38 37 23 55 66 40 12 37 37 31 18 28 24 18 25 25 17 9 11 3 3
81 106 108 103 100 87 87 75 89 124 105 105 99 92 87 77 72 76 73 73 65 43 8 11 32 18 53 29 11 36 75 40 10 12 34 30 28 39 29 36 23 29 18 17 7 8 9
65 88 94 92 94 94 84 83 92 120 105 106 102 97 92 92 70 86 81 67 70 41 11 16 20 27 46 33 35 27 60 47 23 27 10 12 32 38 42 47 31 13 18 19 7 5 4
76 82 90 94 94 90 81 83 129 115 107 106 102 101 94 85 64 85 76 69 71 12 15 8 22 27 32 32 15 40 43 47 14 23 28 30 8 33 35 31 27 14 11 9 8 4 16
65 73 84 89 95 94 82 96 127 112 110 108 106 101 103 98 82 87 84 66 21 10 4 17 19 31 40 28 25 15 28 31 24 14 36 37 41 7 31 35 9 14 19 7 13 11 19
58 66 81 85 89 98 90 123 104 111 109 106 103 101 99 92 81 91 90 10 7 7 9 7 14 34 33 27 35 24 27 27 42 21 4 22 22 43 26 35 27 42 33 10 18 13 15
67 73 65 75 82 135 118 104 112 111 107 105 100 93 95 78 83 92 68 22 14 12 16 17 11 25 26 19 16 29 38 36 25 45 27 12 10 31 19 12 30 18 27 21 9 5 6
101 89 75 90 92 121 117 116 114 111 110 107 99 88 83 81 88 92 31 26 7 8 16 13 11 8 13 25 24 33 33 22 28 34 47 15 7 12 15 22 6 26 36 17 6 6 8
75 79 91 95 91 99 108 107 112 113 112 108 84 44 79 84 96 67 27 18 7 16 18 9 9 10 10 12 19 21 15 14 37 19 38 25 14 5 2 16 32 11 27 9 13 9 9
68 76 80 84 90 95 99 110 115 116 121 102 35 9 94 99 15 8 18 16 14 13 13 9 9 10 10 12 8 16 21 23 50 41 38 30 10 11 30 2 10 19 27 35 20 20 7
51 62 68 76 85 93 100 106 112 122 123 83 26 25 67 76 9 7 10 9 7 10 11 9 7 6 7 10 6 14 15 16 31 39 35 23 11 17 9 7 6 32 12 38 6 9 17
48 56 68 76 79 87 93 102 116 126 112 82 28 8 15 27 8 17 12 14 13 21 12 16 10 12 9 9 9 9 7 5 16 54 61 35 12 7 20 32 14 50 48 52 46 18 26
35 40 52 62 72 83 87 106 113 116 107 67 14 5 14 19 6 15 12 14 22 11 10 18 4 13 14 8 9 16 12 10 19 39 45 28 17 27 33 36 38 29 44 39 42 51 30
30 43 50 60 69 81 100 118 118 105 81 51 17 17 17 13 35 12 20 12 27 16 16 12 12 20 17 20 26 9 14 8 13 19 36 24 10 37 38 24 39 38 43 39 38 45 30
34 39 53 52 67 79 92 120 108 74 54 30 27 39 31 24 14 11 13 14 17 15 17 21 20 13 28 42 46 40 33 31 22 13 21 26 18 23 24 29 32 28 51 54 52 43 57
40 42 53 55 62 105 105 102 85 62 47 38 57 41 16 9 19 23 17 12 24 23 8 22 31 23 11 29 36 46 46 45 40 39 31 39 36 9 9 18 22 12 43 50 60 62 59
40 52 50 55 57 108 109 82 68 51 39 42 52 22 15 9 11 9 14 10 13 17 16 22 20 37 43 15 3 7 8 7 27 46 46 46 15 9 11 26 6 7 20 54 41 60 53
43 56 72 77 83 85 78 75 64 52 44 43 37 29 20 14 11 25 12 22 9 14 2 4 10 23 21 5 8 13 4 15 12 10 36 34 28 13 7 12 23 8 14 51 9 33 48
68 74 73 81 80 79 78 74 66 52 45 24 21 21 15 16 9 22 7 13 24 9 4 10 10 11 24 8 12 6 7 4 12 14 23 13 6 27 17 5 13 13 14 66 24 23 21
54 59 72 70 70 68 60 54 55 51 40 27 27 23 18 12 15 19 14 10 16 22 11 15 12 9 7 13 9 8 6 12 8 10 24 12 15 6 8 3 21 18 44 45 6 5 7
66 62 67 67 71 68 59 51 45 39 32 25 31 25 18 11 8 5 21 21 19 29 23 33 9 10 14 7 6 4 6 6 8 9 6 7 11 15 18 11 2 40 18 21 4 6 7
Wind_Direction_500mb
266 256 253 256 241 236 237 233 229 227 228 225 224 222 223 222 222 221 220 215 211 210 209 206 203 197 189 192 196 111 294 204 204 201 191 180 173 146 172 198 138 139 280 254 264 259 294
262 259 260 253 248 227 232 233 229 227 227 223 221 216 215 213 215 217 213 214 208 207 204 204 202 193 194 209 212 217 28 171 195 194 188 179 197 188 177 189 199 191 221 297 251 212 215
261 259 256 256 254 243 227 228 231 225 219 217 217 212 210 210 208 212 213 213 205 204 200 200 198 197 198 206 191 215 222 171 196 196 193 182 170 212 215 202 225 210 187 247 263 228 250
260 256 254 252 246 243 252 225 227 222 218 215 212 210 208 209 205 206 205 204 202 196 196 194 194 196 214 212 205 201 226 228 216 195 196 196 209 274 232 241 146 156 183 219 232 215 237
256 254 250 248 246 245 239 216 220 221 213 211 207 208 207 206 203 200 197 194 193 188 186 188 191 197 222 211 199 196 214 210 200 195 178 196 208 195 165 111 72 218 183 181 270 201 192
257 252 248 244 242 235 236 225 217 217 212 208 204 204 203 203 197 191 186 183 177 179 178 182 196 188 208 200 203 194 200 206 192 186 189 179 171 147 133 155 203 202 192 202 208 204 187
252 248 241 238 237 234 232 235 211 215 209 206 200 199 199 198 192 184 175 161 158 172 181 185 194 121 174 184 189 200 194 192 194 184 173 183 179 201 198 196 274 194 185 215 227 235 184
243 236 233 231 230 230 230 226 203 210 207 203 198 194 193 194 187 181 179 175 174 182 176 189 160 186 146 176 173 199 191 185 187 191 159 162 220 204 195 201 200 259 246 236 241 316 170
253 233 231 227 223 223 225 233 215 206 201 198 196 189 189 190 181 181 187 183 164 153 138 206 208 192 200 188 175 195 189 194 199 180 185 203 206 192 202 199 206 225 228 223 195 217 7
243 224 220 215 218 217 220 222 229 199 198 195 192 187 185 182 178 183 189 183 173 151 99 177 204 220 188 178 218 203 198 189 214 222 193 221 203 184 199 213 193 220 179 234 150 149 231
223 202 202 207 211 214 211 218 208 192 190 189 186 184 180 182 179 184 183 169 173 164 185 199 177 189 179 180 141 196 196 194 183 192 185 215 189 185 198 205 198 215 171 194 175 128 50
210 201 202 204 206 206 205 214 181 186 186 183 182 180 175 179 181 184 176 169 171 159 217 155 144 165 161 186 171 159 181 201 212 219 220 228 294 191 200 194 193 150 98 59 40 99 234
187 190 197 200 205 201 193 184 181 182 181 180 180 177 175 177 180 179 171 167 171 172 263 161 167 167 175 182 185 153 178 192 196 202 207 220 219 295 179 183 149 157 153 190 217 207 252
187 192 196 199 195 187 186 172 174 175 175 176 175 172 176 174 180 175 171 162 130 190 176 145 145 164 183 156 202 181 173 203 206 190 200 209 209 196 225 190 180 191 178 163 200 195 218
200 192 187 197 199 186 173 171 171 170 170 169 165 169 171 168 174 176 167 193 187 181 145 127 103 168 186 183 156 177 206 211 200 203 211 200 234 188 213 195 165 181 200 174 95 41 94
201 190 187 156 143 150 159 168 166 166 164 162 156 162 170 170 174 169 167 196 160 122 121 144 129 154 160 190 188 185 185 183 207 213 203 187 254 224 200 180 176 194 184 182 191 176 240
137 161 151 141 143 153 160 161 161 160 158 155 145 151 172 171 170 161 187 184 161 131 117 101 126 147 150 159 199 183 204 200 189 179 201 214 204 179 273 217 173 161 188 203 174 174 189
112 125 137 144 151 154 157 160 160 156 156 149 133 123 166 170 153 145 168 164 133 139 85 89 87 104 145 165 143 207 220 212 191 180 195 214 192 195 213 288 234 208 189 184 186 208 207
119 130 140 148 152 154 159 160 159 162 160 148 110 106 162 168 148 122 132 149 136 137 142 129 125 142 183 139 178 201 204 261 227 193 176 156 235 178 201 273 1 206 206 200 111 112 203
123 135 143 150 153 157 160 163 162 165 160 149 120 124 110 164 115 147 131 184 168 185 141 128 137 135 126 166 212 198 175 289 248 209 204 174 202 152 219 213 179 192 195 197 200 188 208
126 138 145 153 153 161 163 167 160 162 164 153 122 126 142 176 207 148 128 163 178 163 141 135 144 174 154 158 210 226 233 256 250 260 202 194 209 207 224 277 188 198 200 196 204 215 195
135 155 153 157 163 165 165 168 163 155 159 159 116 140 133 99 131 101 171 196 184 186 149 196 145 183 188 219 215 180 192 173 246 236 201 190 247 196 211 220 196 197 207 209 220 230 250
135 143 160 163 164 169 174 168 151 152 151 140 113 129 123 149 138 142 199 174 183 160 224 161 171 180 213 225 234 249 253 246 215 225 278 204 183 177 204 199 191 193 196 194 212 221 219
153 144 151 153 150 165 165 156 151 153 165 153 136 136 107 164 175 192 144 163 185 194 187 195 189 187 206 240 250 248 249 245 235 230 211 252 179 156 170 143 204 227 192 207 206 213 220
159 160 163 162 158 146 150 147 148 151 149 148 137 133 123 124 167 147 199 165 206 203 223 214 201 226 233 272 158 281 236 243 254 256 247 200 169 136 170 191 275 240 198 195 192 224 228
142 157 157 158 150 147 148 154 157 151 143 143 142 118 109 117 221 165 174 200 151 199 292 216 181 216 224 152 216 206 173 249 229 168 189 174 198 170 156 166 202 216 181 199 150 267 222
128 140 147 145 150 155 161 166 173 174 167 154 138 153 127 102 148 179 147 179 194 167 173 140 183 211 202 195 229 176 226 200 221 179 164 148 140 193 169 175 266 233 145 140 153 251 240
135 130 135 140 151 157 161 167 179 190 195 202 156 159 160 124 155 192 163 129 147 182 189 156 135 203 164 209 207 178 177 223 229 166 168 155 149 172 105 125 248 158 149 168 226 79 279
91 148 143 144 142 141 142 144 151 158 159 157 149 151 155 114 109 169 205 200 196 204 208 175 173 157 200 204 206 161 179 262 176 183 206 192 176 171 188 196 308 169 192 184 110 145 188
Wind_Speed_850mb
76 89 91 93 108 122 110 106 100 92 86 85 83 77 68 64 58 56 54 61 66 57 52 49 46 49 46 38 26 10 2 40 41 38 35 34 30 19 10 8 11 6 9 19 37 17 3
81 84 83 91 107 105 112 114 101 97 88 85 83 77 69 65 60 55 49 52 60 61 54 50 51 53 58 36 35 25 4 23 37 43 38 35 25 25 18 15 17 30 22 29 15 21 12
89 88 85 88 85 82 108 119 108 98 88 89 85 78 71 65 61 59 54 49 52 59 55 52 51 57 57 56 13 36 37 6 21 42 43 41 24 24 13 7 25 33 13 19 19 21 9
91 96 89 88 87 104 84 124 115 102 98 90 86 84 74 66 62 61 54 49 49 52 54 52 52 57 27 65 33 36 43 32 18 30 35 33 31 14 9 2 3 10 5 19 19 19 14
91 94 93 88 83 89 111 119 114 105 98 92 87 85 78 68 61 60 55 48 48 49 49 49 52 50 22 45 60 40 36 32 34 33 39 26 28 10 7 6 3 9 9 11 10 37 10
95 102 99 90 84 89 94 81 117 110 101 95 92 83 79 70 62 58 55 47 45 46 48 45 42 22 27 47 67 51 42 33 41 38 31 21 15 7 4 8 22 9 11 13 28 16 17
120 109 102 98 88 76 85 91 119 113 105 97 93 85 80 71 64 61 58 59 46 29 72 36 36 8 39 35 49 66 52 42 47 42 14 20 12 31 30 16 6 5 11 18 8 18 17
113 112 106 96 95 88 83 102 103 115 106 98 95 87 82 71 66 66 66 60 70 22 32 43 11 40 23 39 29 56 63 43 29 25 23 10 28 27 15 15 15 19 11 12 13 4 14
105 134 120 103 98 87 84 75 55 121 106 102 96 89 84 74 67 70 75 70 60 44 13 44 32 38 38 37 23 55 66 40 12 37 37 31 18 28 24 18 25 25 17 9 11 3 3
81 106 108 103 100 87 87 75 89 124 105 105 99 92 87 77 72 76 73 73 65 43 8 11 32 18 53 29 11 36 75 40 10 12 34 30 28 39 29 36 23 29 18 17 7 8 9
65 88 94 92 94 94 84 83 92 120 105 106 102 97 92 92 70 86 81 67 70 41 11 16 20 27 46 33 35 27 60 47 23 27 10 12 32 38 42 47 31 13 18 19 7 5 4
76 82 90 94 94 90 81 83 129 115 107 106 102 101 94 85 64 85 76 69 71 12 15 8 22 27 32 32 15 40 43 47 14 23 28 30 8 33 35 31 27 14 11 9 8 4 16
65 73 84 89 95 94 82 96 127 112 110 108 106 101 103 98 82 87 84 66 21 10 4 17 19 31 40 28 25 15 28 31 24 14 36 37 41 7 31 35 9 14 19 7 13 11 19
58 66 81 85 89 98 90 123 104 111 109 106 103 101 99 92 81 91 90 10 7 7 9 7 14 34 33 27 35 24 27 27 42 21 4 22 22 43 26 35 27 42 33 10 18 13 15
67 73 65 75 82 135 118 104 112 111 107 105 100 93 95 78 83 92 68 22 14 12 16 17 11 25 26 19 16 29 38 36 25 45 27 12 10 31 19 12 30 18 27 21 9 5 6
101 89 75 90 92 121 117 116 114 111 110 107 99 88 83 81 88 92 31 26 7 8 16 13 11 8 13 25 24 33 33 22 28 34 47 15 7 12 15 22 6 26 36 17 6 6 8
75 79 91 95 91 99 108 107 112 113 112 108 84 44 79 84 96 67 27 18 7 16 18 9 9 10 10 12 19 21 15 14 37 19 38 25 14 5 2 16 32 11 27 9 13 9 9
68 76 80 84 90 95 99 110 115 116 121 102 35 9 94 99 15 8 18 16 14 13 13 9 9 10 10 12 8 16 21 23 50 41 38 30 10 11 30 2 10 19 27 35 20 20 7
51 62 68 76 85 93 100 106 112 122 123 83 26 25 67 76 9 7 10 9 7 10 11 9 7 6 7 10 6 14 15 16 31 39 35 23 11 17 9 7 6 32 12 38 6 9 17
48 56 68 76 79 87 93 102 116 126 112 82 28 8 15 27 8 17 12 14 13 21 12 16 10 12 9 9 9 9 7 5 16 54 61 35 12 7 20 32 14 50 48 52 46 18 26
35 40 52 62 72 83 87 106 113 116 107 67 14 5 14 19 6 15 12 14 22 11 10 18 4 13 14 8 9 16 12 10 19 39 45 28 17 27 33 36 38 29 44 39 42 51 30
30 43 50 60 69 81 100 118 118 105 81 51 17 17 17 13 35 12 20 12 27 16 16 12 12 20 17 20 26 9 14 8 13 19 36 24 10 37 38 24 39 38 43 39 38 45 30
34 39 53 52 67 79 92 120 108 74 54 30 27 39 31 24 14 11 13 14 17 15 17 21 20 13 28 42 46 40 33 31 22 13 21 26 18 23 24 29 32 28 51 54 52 43 57
40 42 53 55 62 105 105 102 85 62 47 38 57 41 16 9 19 23 17 12 24 23 8 22 31 23 11 29 36 46 46 45 40 39 31 39 36 9 9 18 22 12 43 50 60 62 59
40 52 50 55 57 108 109 82 68 51 39 42 52 22 15 9 11 9 14 10 13 17 16 22 20 37 43 15 3 7 8 7 27 46 46 46 15 9 11 26 6 7 20 54 41 60 53
43 56 72 77 83 85 78 75 64 52 44 43 37 29 20 14 11 25 12 22 9 14 2 4 10 23 21 5 8 13 4 15 12 10 36 34 28 13 7 12 23 8 14 51 9 33 48
68 74 73 81 80 79 78 74 66 52 45 24 21 21 15 16 9 22 7 13 24 9 4 10 10 11 24 8 12 6 7 4 12 14 23 13 6 27 17 5 13 13 14 66 24 23 21
54 59 72 70 70 68 60 54 55 51 40 27 27 23 18 12 15 19 14 10 16 22 11 15 12 9 7 13 9 8 6 12 8 10 24 12 15 6 8 3 21 18 44 45 6 5 7
66 62 67 67 71 68 59 51 45 39 32 25 31 25 18 11 8 5 21 21 19 29 23 33 9 10 14 7 6 4 6 6 8 9 6 7 11 15 18 11 2 40 18 21 4 6 7
Wind_Direction_850mb
266 256 253 256 241 236 237 233 229 227 228 225 224 222 223 222 222 221 220 215 211 210 209 206 203 197 189 192 196 111 294 204 204 201 191 180 173 146 172 198 138 139 280 254 264 259 294
262 259 260 253 248 227 232 233 229 227 227 223 221 216 215 213 215 217 213 214 208 207 204 204 202 193 194 209 212 217 28 171 195 194 188 179 197 188 177 189 199 191 221 297 251 212 215
261 259 256 256 254 243 227 228 231 225 219 217 217 212 210 210 208 212 213 213 205 204 200 200 198 197 198 206 191 215 222 171 196 196 193 182 170 212 215 202 225 210 187 247 263 228 250
260 256 254 252 246 243 252 225 227 222 218 215 212 210 208 209 205 206 205 204 202 196 196 194 194 196 214 212 205 201 226 228 216 195 196 196 209 274 232 241 146 156 183 219 232 215 237
256 254 250 248 246 245 239 216 220 221 213 211 207 208 207 206 203 200 197 194 193 188 186 188 191 197 222 211 199 196 214 210 200 195 178 196 208 195 165 111 72 218 183 181 270 201 192
257 252 248 244 242 235 236 225 217 217 212 208 204 204 203 203 197 191 186 183 177 179 178 182 196 188 208 200 203 194 200 206 192 186 189 179 171 147 133 155 203 202 192 202 208 204 187
252 248 241 238 237 234 232 235 211 215 209 206 200 199 199 198 192 184 175 161 158 172 181 185 194 121 174 184 189 200 194 192 194 184 173 183 179 201 198 196 274 194 185 215 227 235 184
243 236 233 231 230 230 230 226 203 210 207 203 198 194 193 194 187 181 179 175 174 182 176 189 160 186 146 176 173 199 191 185 187 191 159 162 220 204 195 201 200 259 246 236 241 316 170
253 233 231 227 223 223 225 233 215 206 201 198 196 189 189 190 181 181 187 183 164 153 138 206 208 192 200 188 175 195 189 194 199 180 185 203 206 192 202 199 206 225 228 223 195 217 7
243 224 220 215 218 217 220 222 229 199 198 195 192 187 185 182 178 183 189 183 173 151 99 177 204 220 188 178 218 203 198 189 214 222 193 221 203 184 199 213 193 220 179 234 150 149 231
223 202 202 207 211 214 211 218 208 192 190 189 186 184 180 182 179 184 183 169 173 164 185 199 177 189 179 180 141 196 196 194 183 192 185 215 189 185 198 205 198 215 171 194 175 128 50
210 201 202 204 206 206 205 214 181 186 186 183 182 180 175 179 181 184 176 169 171 159 217 155 144 165 161 186 171 159 181 201 212 219 220 228 294 191 200 194 193 150 98 59 40 99 234
187 190 197 200 205 201 193 184 181 182 181 180 180 177 175 177 180 179 171 167 171 172 263 161 167 167 175 182 185 153 178 192 196 202 207 220 219 295 179 183 149 157 153 190 217 207 252
187 192 196 199 195 187 186 172 174 175 175 176 175 172 176 174 180 175 171 162 130 190 176 145 145 164 183 156 202 181 173 203 206 190 200 209 209 196 225 190 180 191 178 163 200 195 218
200 192 187 197 199 186 173 171 171 170 170 169 165 169 171 168 174 176 167 193 187 181 145 127 103 168 186 183 156 177 206 211 200 203 211 200 234 188 213 195 165 181 200 174 95 41 94
201 190 187 156 143 150 159 168 166 166 164 162 156 162 170 170 174 169 167 196 160 122 121 144 129 154 160 190 188 185 185 183 207 213 203 187 254 224 200 180 176 194 184 182 191 176 240
137 161 151 141 143 153 160 161 161 160 158 155 145 151 172 171 170 161 187 184 161 131 117 101 126 147 150 159 199 183 204 200 189 179 201 214 204 179 273 217 173 161 188 203 174 174 189
112 125 137 144 151 154 157 160 160 156 156 149 133 123 166 170 153 145 168 164 133 139 85 89 87 104 145 165 143 207 220 212 191 180 195 214 192 195 213 288 234 208 189 184 186 208 207
119 130 140 148 152 154 159 160 159 162 160 148 110 106 162 168 148 122 132 149 136 137 142 129 125 142 183 139 178 201 204 261 227 193 176 156 235 178 201 273 1 206 206 200 111 112 203
123 135 143 150 153 157 160 163 162 165 160 149 120 124 110 164 115 147 131 184 168 185 141 128 137 135 126 166 212 198 175 289 248 209 204 174 202 152 219 213 179 192 195 197 200 188 208
126 138 145 153 153 161 163 167 160 162 164 153 122 126 142 176 207 148 128 163 178 163 141 135 144 174 154 158 210 226 233 256 250 260 202 194 209 207 224 277 188 198 200 196 204 215 195
135 155 153 157 163 165 165 168 163 155 159 159 116 140 133 99 131 101 171 196 184 186 149 196 145 183 188 219 215 180 192 173 246 236 201 190 247 196 211 220 196 197 207 209 220 230 250
135 143 160 163 164 169 174 168 151 152 151 140 113 129 123 149 138 142 199 174 183 160 224 161 171 180 213 225 234 249 253 246 215 225 278 204 183 177 204 199 191 193 196 194 212 221 219
153 144 151 153 150 165 165 156 151 153 165 153 136 136 107 164 175 192 144 163 185 194 187 195 189 187 206 240 250 248 249 245 235 230 211 252 179 156 170 143 204 227 192 207 206 213 220
159 160 163 162 158 146 150 147 148 151 149 148 137 133 123 124 167 147 199 165 206 203 223 214 201 226 233 272 158 281 236 243 254 256 247 200 169 136 170 191 275 240 198 195 192 224 228
142 157 157 158 150 147 148 154 157 151 143 143 142 118 109 117 221 165 174 200 151 199 292 216 181 216 224 152 216 206 173 249 229 168 189 174 198 170 156 166 202 216 181 199 150 267 222
128 140 147 145 150 155 161 166 173 174 167 154 138 153 127 102 148 179 147 179 194 167 173 140 183 211 202 195 229 176 226 200 221 179 164 148 140 193 169 175 266 233 145 140 153 251 240
135 130 135 140 151 157 161 167 179 190 195 202 156 159 160 124 155 192 163 129 147 182 189 156 135 203 164 209 207 178 177 223 229 166 168 155 149 172 105 125 248 158 149 168 226 79 279
91 148 143 144 142 141 142 144 151 158 159 157 149 151 155 114 109 169 205 200 196 204 208 175 173 157 200 204 206 161 179 262 176 183 206 192 176 171 188 196 308 169 192 184 110 145 188